| time (UTC) | temp C | wind direction | speed KPH | gust KPH | rain 1hr cm | rain 24hr cm | rain mn cm | humidity % | barometer mb |
| 20260504201600 | 23 | 295 | 1.6 | 6.4 | 0.00 | 0.00 | 0.00 | 36 | 1011.0 |
| 20260504200055 | 23 | 121 | 1.6 | 9.7 | 0.00 | 0.00 | 0.00 | 34 | 1011.0 |
| 20260504194554 | 23 | 109 | 1.6 | 11.3 | 0.00 | 0.00 | 0.00 | 34 | 1011.1 |
| 20260504193051 | 23 | 52 | 0.0 | 9.7 | 0.00 | 0.00 | 0.00 | 35 | 1011.3 |
| 20260504191548 | 23 | 41 | 0.0 | 6.4 | 0.00 | 0.00 | 0.00 | 34 | 1011.5 |
| 20260504190045 | 22 | 275 | 0.0 | 6.4 | 0.00 | 0.00 | 0.00 | 34 | 1011.6 |
| 20260504184542 | 22 | 55 | 1.6 | 14.5 | 0.00 | 0.00 | 0.00 | 36 | 1011.8 |
| 20260504183041 | 22 | 84 | 1.6 | 6.4 | 0.00 | 0.00 | 0.00 | 36 | 1012.0 |
| 20260504181538 | 22 | 130 | 0.0 | 11.3 | 0.00 | 0.00 | 0.00 | 34 | 1012.3 |
| 20260504180036 | 22 | 289 | 1.6 | 9.7 | 0.00 | 0.00 | 0.00 | 36 | 1012.4 |
| 20260504174532 | 22 | 254 | 1.6 | 12.9 | 0.00 | 0.00 | 0.00 | 35 | 1012.7 |
| 20260504173029 | 21 | 292 | 3.2 | 11.3 | 0.00 | 0.00 | 0.00 | 37 | 1012.9 |
| 20260504171526 | 21 | 329 | 0.0 | 6.4 | 0.00 | 0.00 | 0.00 | 37 | 1013.2 |
| 20260504081502 | 7 | 257 | 0.0 | 0.0 | 0.00 | 0.00 | 0.00 | 63 | 1015.8 |
| 20260504080109 | 7 | 257 | 0.0 | 1.6 | 0.00 | 0.00 | 0.00 | 63 | 1015.8 |
| 20260504044541 | 8 | 257 | 0.0 | 1.6 | 0.00 | 0.00 | 0.00 | 56 | 1015.7 |
| 20260504043044 | 8 | 257 | 0.0 | 1.6 | 0.00 | 0.00 | 0.00 | 56 | 1015.6 |
| 20260504041537 | 8 | 257 | 0.0 | 1.6 | 0.00 | 0.00 | 0.00 | 56 | 1015.4 |
| 20260504040039 | 8 | 257 | 0.0 | 1.6 | 0.00 | 0.00 | 0.00 | 55 | 1015.3 |
| 20260504034536 | 8 | 257 | 0.0 | 1.6 | 0.00 | 0.00 | 0.00 | 54 | 1015.2 |
| 20260504033038 | 9 | 257 | 0.0 | 1.6 | 0.00 | 0.00 | 0.00 | 54 | 1015.1 |
| 20260504031538 | 9 | 257 | 0.0 | 1.6 | 0.00 | 0.00 | 0.00 | 54 | 1015.1 |
| 20260504030035 | 10 | 257 | 0.0 | 1.6 | 0.00 | 0.00 | 0.00 | 53 | 1015.1 |
| 20260504024531 | 10 | 257 | 0.0 | 0.0 | 0.00 | 0.00 | 0.00 | 52 | 1015.0 |
| 20260504023032 | 10 | 257 | 0.0 | 0.0 | 0.00 | 0.00 | 0.00 | 50 | 1015.2 |
| 20260504021531 | 10 | 257 | 0.0 | 1.6 | 0.00 | 0.00 | 0.00 | 49 | 1015.1 |
| 20260504020031 | 11 | 257 | 0.0 | 0.0 | 0.00 | 0.00 | 0.00 | 48 | 1015.1 |
| 20260504014530 | 11 | 257 | 0.0 | 1.6 | 0.00 | 0.00 | 0.00 | 47 | 1014.9 |
| 20260504013035 | 11 | 257 | 0.0 | 1.6 | 0.00 | 0.00 | 0.00 | 45 | 1014.9 |
| 20260504011530 | 12 | 257 | 0.0 | 1.6 | 0.00 | 0.00 | 0.00 | 44 | 1014.8 |
| 20260504010029 | 12 | 257 | 0.0 | 0.0 | 0.00 | 0.00 | 0.00 | 43 | 1014.6 |
| 20260504004530 | 13 | 257 | 0.0 | 1.6 | 0.00 | 0.00 | 0.00 | 41 | 1014.5 |
| 20260504003038 | 13 | 257 | 0.0 | 1.6 | 0.00 | 0.00 | 0.00 | 40 | 1014.2 |
| 20260504001528 | 13 | 258 | 0.0 | 3.2 | 0.00 | 0.00 | 0.00 | 38 | 1014.0 |
| 20260504000050 | 14 | 257 | 0.0 | 4.8 | 0.00 | 0.00 | 0.00 | 36 | 1014.0 |
| 20260503234527 | 15 | 267 | 1.6 | 6.4 | 0.00 | 0.00 | 0.00 | 35 | 1013.7 |
| 20260503233026 | 15 | 261 | 1.6 | 6.4 | 0.00 | 0.00 | 0.00 | 34 | 1013.6 |
| 20260503231526 | 15 | 245 | 1.6 | 12.9 | 0.00 | 0.00 | 0.00 | 33 | 1013.5 |
| 20260503230026 | 16 | 279 | 3.2 | 9.7 | 0.00 | 0.00 | 0.00 | 32 | 1013.4 |
| 20260503224524 | 16 | 259 | 1.6 | 9.7 | 0.00 | 0.00 | 0.00 | 32 | 1013.4 |
| 20260503223030 | 16 | 308 | 3.2 | 11.3 | 0.00 | 0.00 | 0.00 | 31 | 1013.4 |
| 20260503221523 | 17 | 282 | 4.8 | 14.5 | 0.00 | 0.00 | 0.00 | 29 | 1013.4 |
| 20260503220023 | 17 | 250 | 1.6 | 14.5 | 0.00 | 0.00 | 0.00 | 30 | 1013.5 |
| 20260503214523 | 17 | 281 | 3.2 | 12.9 | 0.00 | 0.00 | 0.00 | 29 | 1013.5 |
| 20260503213021 | 17 | 311 | 3.2 | 14.5 | 0.00 | 0.00 | 0.00 | 29 | 1013.4 |
| 20260503211521 | 17 | 275 | 3.2 | 8.0 | 0.00 | 0.00 | 0.00 | 30 | 1013.3 |
| 20260503210020 | 17 | 294 | 1.6 | 11.3 | 0.00 | 0.00 | 0.00 | 31 | 1013.4 |
| 20260503204517 | 16 | 238 | 1.6 | 14.5 | 0.00 | 0.00 | 0.00 | 33 | 1013.5 |
| 20260503203025 | 16 | 344 | 3.2 | 8.0 | 0.00 | 0.00 | 0.00 | 30 | 1013.5 |